Temperatures and Conditions from around the state of pennsylvania

NOAA NWS Hourly Roundups by Site

Regional Weather Roundup for State College, PA

To Select Another Site Choose from List

Select Site:  

000
ASUS41 KCTP 211310
RWRCTP

REGIONAL WEATHER ROUNDUP
NATIONAL WEATHER SERVICE STATE COLLEGE PA
800 AM EST MON JAN 21 2019

Note: "fair" indicates few or no clouds below 12,000 feet with no
significant weather and/or obstructions to visibility.

* = STATION THAT DOES NOT REPORT PRECIPITATION /E.G. RAIN...SNOW...ETC/
    THUNDER OR FOG.

PAZ002>004-007>009-013>016-020>023-029>032-211400-
WESTERN PENNSYLVANIA

CITY           SKY/WX    TMP DP  RH WIND       PRES   REMARKS
ERIE           FAIR       5  -5  63 N15G23    30.40R WCI -13
MEADVILLE      CLOUDY     2  -2  83 NW13G20   30.28R FOG     WCI -15
FRANKLIN*      LGT SNOW  -2  -7  79 NW10      30.25R WCI -19
NEW CASTLE     FLURRIES   2  -2  83 W7        30.35R WCI -11
BEAVER COUNTY  NOT AVBL
BUTLER*        CLOUDY     0  -3  87 W6        30.31R WCI -12
PITTSBURGH INT FAIR       0  -3  87 SW6       30.33R WCI -12
PITTSBURGH     LGT SNOW   1  -3  83 W6        30.32R FOG     WCI -10
INDIANA*       PTCLDY     1  -4  78 NW10G24   30.29R WCI -14
LATROBE        MOCLDY     3  -4  72 W17       30.33R WCI -17
WASHINGTON CO* FAIR       0  -4  83 W12       30.39R WCI -17
$$

PAZ004>006-010>012-017>019-024>028-033>037-041-042-045-046-049>053-211400-
CENTRAL PENNSYLVANIA

CITY           SKY/WX    TMP DP  RH WIND       PRES   REMARKS
BRADFORD       FAIR      -7 -13  75 NW17G26   30.07R HAZE    WCI -30
DUBOIS         MOCLDY    -4 -11  72 W13G22    30.14R WCI -23
CLEARFIELD     CLOUDY    15  -9  33 W7        30.16R WCI   5
JOHNSTOWN      HVY SNOW  -1  -6  79 W17G33    30.11R VSB 1/4 WCI -22
ALTOONA        FAIR       2  -9  60 NW17G28   30.16R WCI -18
STATE COLLEGE  NOT AVBL
WILLIAMSPORT   FAIR       1 -13  51 W14G25    30.16R WCI -17
SELINSGROVE    FAIR       3 -11  52 NW9G21    30.19R WCI -12
FT INDIANTOWN  FAIR       5 -12  44 W14G31    30.12R WCI -12
CAPITAL CITY   FAIR       7  -9  48 NW15      30.18R WCI -10
HARRISBURG     FAIR       8  -6  52 NW22G35   30.17R WCI -12
YORK           FAIR       8  -8  48 W16G22    30.17R WCI -10
$$

PAZ038>040-043-044-047-048-054-055-060>062-067>071-211400-
EASTERN PENNSYLVANIA

CITY           SKY/WX    TMP DP  RH WIND       PRES   REMARKS
SCRANTON       CLOUDY    -3 -14  59 W10       30.05R WCI -20
MOUNT POCONO   CLOUDY    -8 -14  74 W30G37    29.82R WCI -37
ALLENTOWN      FAIR       6 -10  47 NW18G28   30.06R WCI -13
QUAKERTOWN*    SUNNY      5 -11  47 CALM      30.06R
READING        FAIR       7  -6  55 NW23G29   30.11R WCI -14
LANCASTER      FAIR       8  -7  50 NW24G32   30.14R WCI -13
COATESVILLE    FAIR       7  -6  56 NW25G33   30.07S WCI -15
POTTSTOWN      FAIR       6  -8  52 NW12G28   30.11R WCI  -9
BLUE BELL      FAIR       9  -6  52 NW15G26   30.09R WCI  -8
DOYLESTOWN     FAIR       6  -9  50 W14G31    30.03R WCI -11
WILLOW GROVE   NOT AVBL
NORTH PHILA    FAIR      10  -9  42 NW25G35   30.08R WCI -11
PHILADELPHIA   FAIR      10  -9  42 NW22G35   30.11R WCI -10
$$


 

View Past Reports for State College, PA.

Products Courtesy of NOAA-NWS
NWS Information Parsing Script by Ken True at Saratoga Weather - Script by SE Lincoln Weather.